Location: *
(57.8420°S, 159.8600°W)
Time: 03:06:48
(UTC+00:00)

Cosmos 1151 Rocket - Pass Details

Date: 18 May 2021
Orbit: 591 x 616 km, 82.5° (Epoch: 23 June)

Event Time Altitude Azimuth Distance (km) Brightness Sun altitude
Rises 04:45:49 0° 192° (SSW) 2,886 6.5 -17.8°
Reaches altitude 10° 04:48:06 10° 186° (S) 1,979 5.6 -18.1°
Maximum altitude 04:52:24 54° 108° (ESE) 753 3.1 -18.7°
Enters shadow 04:54:54 23° 39° (NE) 1,306 4.4 -19.0°
